Temperature
22 21 20 20 19 19 21 22 23 22 22 22 22 22 21 20 20 20 20 20 20 19 19 19 19 19 19 19 19 19 18 18 18 18 18 18 18 18 18 18 18 18 18 18 18 18 18 18 18
21 21 20 20 19 20 21 23 23 23 22 23 22 21 20 19 20 20 19 19 19 19 19 19 19 19 19 19 19 18 18 18 18 18 18 18 18 18 18 18 18 18 18 18 18 18 18 18 18
21 21 20 19 20 20 22 23 22 23 23 23 22 21 20 19 20 20 19 19 19 19 19 19 19 19 18 18 18 18 18 18 18 18 18 18 18 18 18 18 18 18 18 18 18 18 18 18 18
21 21 21 19 22 22 22 23 23 23 23 22 21 20 20 19 20 20 19 19 19 19 19 19 18 18 18 18 18 18 18 18 18 18 18 18 18 18 18 18 18 18 18 18 18 18 18 18 18
21 21 20 20 22 23 23 24 24 23 23 22 21 20 19 19 20 20 19 19 19 19 19 19 18 18 18 18 18 18 18 18 18 18 18 18 18 18 18 18 18 18 18 18 18 18 18 18 18
22 20 20 21 23 23 24 24 23 22 22 22 21 19 19 19 20 20 19 19 19 19 18 18 18 18 18 18 18 18 18 18 18 18 18 18 18 18 18 18 18 18 18 18 18 18 18 18 18
21 20 21 22 22 23 24 24 23 22 22 22 21 19 19 19 19 19 19 19 19 19 18 18 18 18 18 18 18 18 18 18 18 18 18 18 18 18 18 18 18 18 18 18 18 18 18 18 18
23 20 22 22 23 24 24 24 23 23 22 22 21 19 19 19 19 19 19 19 19 18 18 18 18 18 18 18 18 18 18 18 18 18 18 18 18 18 18 18 18 18 18 18 18 18 18 18 18
23 20 21 23 23 24 24 24 23 23 22 22 21 21 21 19 19 19 19 19 18 18 18 18 18 18 18 18 18 18 18 18 18 18 18 18 18 18 18 18 18 18 18 18 18 18 18 18 17
22 21 23 24 24 24 24 24 23 23 22 21 21 21 20 19 19 19 19 18 18 18 18 18 18 18 18 18 18 18 18 18 18 18 17 17 17 18 18 18 18 18 18 18 18 18 18 17 17
22 22 24 25 25 25 24 24 24 22 21 21 21 20 20 19 19 19 19 19 18 18 18 18 18 18 18 18 18 18 18 18 18 18 17 17 17 17 18 18 18 18 18 18 18 18 18 17 17
23 24 25 25 26 25 24 24 23 23 23 23 22 21 20 19 19 19 19 19 18 18 18 18 18 18 18 18 18 18 18 18 18 18 18 18 17 17 17 18 18 18 18 18 18 18 17 17 17
24 25 26 26 26 25 25 24 23 23 23 23 22 21 20 20 19 19 19 19 19 19 18 18 18 18 18 18 18 18 18 18 18 18 18 17 17 17 17 17 18 18 18 18 18 17 17 17 17
25 25 25 25 25 25 24 23 23 22 22 22 21 20 20 20 20 19 19 19 19 19 19 18 18 18 18 18 18 18 18 18 18 18 17 17 17 17 17 17 17 17 17 17 17 17 17 17 17
25 24 24 25 25 25 24 23 23 22 22 21 20 20 20 20 20 20 19 19 19 19 19 19 18 18 18 18 18 18 18 18 18 17 17 17 17 17 17 17 17 17 17 17 17 17 17 17 17
24 24 24 24 24 24 24 23 23 22 21 20 20 20 20 20 20 20 20 19 19 19 19 19 18 18 18 18 18 18 18 18 17 17 17 17 17 17 17 17 17 17 17 17 17 17 17 17 17
23 23 24 24 24 24 24 23 22 22 21 20 20 20 20 20 20 20 20 20 19 19 19 19 19 18 18 18 18 18 18 17 17 17 17 17 17 17 17 17 17 17 17 17 17 17 17 17 17
24 23 24 24 24 24 23 22 22 22 21 21 20 20 20 20 20 20 20 20 19 19 19 19 19 18 18 18 18 18 18 17 17 17 17 17 17 17 17 17 17 17 17 17 17 17 17 17 17
24 24 23 24 24 23 23 22 22 21 21 21 21 20 20 20 21 20 20 20 20 19 19 19 19 18 18 18 18 18 18 18 17 17 17 17 17 17 17 17 17 17 17 17 17 17 17 17 17
24 24 24 24 24 24 22 22 22 21 21 21 21 21 20 20 20 20 20 20 20 20 19 19 19 19 19 18 18 18 18 18 18 17 17 17 17 17 17 17 17 17 17 17 17 17 17 17 17
24 24 24 24 24 23 23 22 21 21 21 21 21 21 21 21 21 21 20 20 20 20 20 19 19 19 19 18 18 18 18 18 18 18 17 17 17 17 17 17 17 17 17 17 17 17 17 17 17
23 24 24 24 23 21 22 21 21 20 20 20 21 21 21 21 21 21 21 20 20 20 20 19 19 19 19 18 18 18 18 18 18 18 18 18 17 17 17 17 17 17 17 17 17 17 17 17 17
24 24 24 23 22 21 21 21 20 20 20 20 21 21 21 21 21 21 21 21 20 20 20 20 19 19 19 19 19 18 18 18 18 18 18 18 17 17 17 17 17 17 17 17 17 17 17 17 17
24 23 22 19 19 21 21 21 21 19 20 21 21 21 21 21 21 21 21 21 20 20 20 19 19 19 19 19 19 18 18 18 18 18 18 18 18 17 17 17 17 17 17 17 17 17 17 17 17
23 21 21 21 20 20 20 20 20 21 21 21 21 21 21 21 21 21 21 21 20 20 20 19 19 19 19 19 19 18 18 18 18 18 18 18 18 17 17 17 17 17 17 17 17 17 17 17 17
22 22 21 21 21 20 20 20 21 21 21 22 21 21 21 21 21 21 21 21 21 20 20 20 19 19 19 19 19 19 18 18 18 18 18 18 18 18 18 17 17 17 17 17 17 17 17 17 17
22 21 20 19 20 20 20 20 20 21 21 20 21 21 21 21 20 20 21 21 21 21 20 20 20 19 19 19 19 19 18 18 18 18 18 18 18 18 18 17 17 17 17 17 17 17 17 17 17
22 19 18 19 20 20 21 20 20 21 20 19 19 20 21 21 20 20 20 21 21 21 20 20 20 19 19 19 19 19 19 19 18 18 18 18 18 17 17 17 17 17 17 17 17 17 17 16 16
21 20 17 17 18 19 20 20 20 20 19 19 19 20 20 21 21 21 20 20 21 21 21 20 20 19 19 19 19 19 19 18 18 18 18 18 18 17 17 17 17 17 17 17 17 16 16 16 16
21 20 18 19 18 17 18 19 21 19 19 19 19 20 20 21 21 21 20 20 20 20 20 20 20 19 19 19 19 19 19 18 18 18 18 18 18 17 17 17 17 17 17 17 17 17 16 16 16
Wind_Speed
10 8 3 1 3 4 2 3 1 2 3 2 4 5 5 3 1 1 1 2 3 3 4 5 6 8 10 11 11 11 12 11 11 12 12 12 13 13 14 14 15 16 15 15 16 16 16 16 16
7 5 1 2 4 3 3 2 1 1 4 4 5 5 5 3 2 3 2 2 4 4 4 5 7 8 10 11 11 11 11 11 11 12 12 12 12 12 12 13 14 15 15 15 16 16 16 16 16
7 3 2 3 3 2 2 1 3 4 4 3 4 4 4 2 3 2 2 4 5 4 4 5 8 9 10 10 10 10 10 10 11 11 11 11 11 11 11 11 13 14 15 15 16 15 15 15 15
4 1 3 4 1 2 3 3 5 5 3 5 4 5 4 3 2 3 6 6 6 4 4 5 8 9 9 9 9 9 9 10 10 10 11 10 10 10 10 11 12 13 14 15 15 15 15 14 14
2 3 5 3 3 2 1 3 4 4 3 4 4 4 4 4 6 8 7 6 6 4 4 5 8 8 8 8 8 8 8 9 9 10 10 10 10 10 10 11 12 13 13 14 14 14 14 14 14
3 4 4 2 3 2 1 3 3 4 3 3 4 4 3 3 6 6 6 5 5 4 4 5 7 7 7 6 7 7 8 8 9 9 9 10 10 9 10 10 11 12 13 13 14 13 13 13 13
3 3 2 1 1 1 2 3 4 4 4 3 4 5 2 3 4 6 6 5 5 4 4 4 5 5 5 5 6 6 7 8 9 9 9 9 9 9 9 10 10 11 12 12 12 12 12 12 12
4 4 1 1 2 2 3 3 3 4 4 4 4 6 4 4 7 7 6 5 5 4 4 3 3 3 3 4 5 5 7 8 9 8 8 9 9 9 9 9 9 10 11 11 11 11 11 11 11
3 4 1 4 4 3 3 3 3 4 6 3 3 4 6 12 10 7 5 4 3 3 3 2 3 3 2 3 4 4 6 7 7 7 8 7 6 7 7 8 9 9 10 10 10 10 10 10 9
4 2 6 5 5 5 4 4 5 5 5 3 5 7 11 12 10 8 6 5 3 1 1 2 2 2 2 2 3 3 4 5 5 5 5 6 5 5 5 8 9 8 8 8 8 8 8 6 5
4 5 4 3 4 5 6 4 4 8 3 5 8 12 13 11 8 7 5 4 4 2 1 1 1 2 2 2 2 3 4 4 5 5 6 5 5 4 3 3 4 5 5 4 5 5 4 4 4
3 4 3 1 3 5 7 6 5 5 5 6 12 15 13 11 9 8 6 4 3 2 1 1 1 2 2 2 2 3 3 3 3 4 5 4 3 2 2 2 3 3 3 3 3 3 4 4 3
2 3 2 1 3 5 6 5 4 2 5 12 14 13 12 11 8 6 5 4 3 3 2 1 1 1 1 2 2 3 2 3 3 4 4 4 3 2 2 1 2 3 3 3 3 3 3 3 3
1 1 2 2 4 3 6 3 4 2 10 13 13 12 10 10 8 6 5 5 4 4 3 2 2 2 2 1 1 2 2 2 3 3 4 4 3 2 2 2 2 2 3 3 3 3 3 3 3
2 3 5 3 3 2 6 2 1 6 12 13 12 10 9 7 7 7 7 6 5 4 3 3 3 2 2 1 1 2 2 2 2 2 4 4 4 3 2 2 2 2 3 3 3 4 4 3 3
4 5 2 3 2 3 5 3 3 9 13 11 10 10 8 7 7 6 6 5 5 4 4 4 4 3 2 2 1 1 2 2 2 2 3 4 4 4 3 2 2 3 3 3 3 3 3 3 2
5 2 1 3 1 2 4 4 3 9 11 11 10 10 9 7 6 6 6 6 6 5 5 4 3 3 3 2 2 1 1 2 2 2 3 3 3 4 4 3 2 3 3 3 3 3 3 3 2
3 2 2 3 2 3 3 3 4 10 10 10 10 9 9 9 9 7 6 6 5 5 5 4 3 3 3 2 2 2 2 1 1 2 2 3 4 4 4 3 2 3 3 3 3 4 3 3 2
4 3 3 4 2 2 3 3 4 8 8 9 9 9 9 9 7 6 6 6 5 4 5 5 4 3 3 2 2 2 1 1 1 1 3 3 4 4 4 3 3 3 3 3 3 3 4 2 2
4 2 2 3 1 2 0 2 2 6 9 9 10 11 10 8 6 6 6 6 7 7 6 5 5 4 4 3 2 2 2 2 1 1 2 2 3 4 4 4 3 3 3 3 3 3 3 2 2
2 5 4 2 2 4 3 4 2 2 3 4 5 7 8 10 9 8 7 7 7 7 7 7 6 5 4 4 3 3 3 2 2 2 1 1 2 3 3 3 3 3 3 3 3 3 3 2 1
3 4 5 3 3 2 2 2 5 3 3 5 6 7 8 8 8 8 8 8 9 9 7 6 6 5 4 5 4 5 4 3 2 1 1 1 2 3 3 3 3 3 3 3 3 3 2 3 2
5 3 4 3 4 2 2 1 7 1 4 8 8 8 8 8 9 9 9 9 8 8 7 7 6 6 5 5 5 5 4 3 2 2 1 1 1 1 3 3 3 3 2 3 2 3 3 2 3
5 6 7 6 5 1 2 3 6 3 7 6 7 8 8 9 9 8 8 7 6 6 6 6 6 6 5 6 5 6 5 4 4 2 2 1 1 0 1 3 3 3 2 3 3 3 3 3 3
5 6 4 4 3 4 2 2 7 6 5 6 7 7 7 7 8 7 7 8 8 7 7 7 7 7 6 6 6 6 6 6 5 4 3 3 2 1 2 2 2 2 3 3 3 3 3 3 3
4 8 7 5 5 4 1 4 6 4 4 3 4 5 6 7 7 8 8 8 8 8 8 8 8 7 7 7 6 5 5 5 4 4 4 4 3 3 3 3 3 3 3 3 3 2 2 2 3
6 4 6 7 3 0 4 6 7 3 4 3 1 3 6 7 7 8 8 8 7 8 8 8 8 7 7 7 6 5 5 5 4 4 4 3 3 3 3 3 3 3 3 3 3 2 3 2 3
5 8 6 6 5 3 4 4 5 5 4 3 1 2 4 6 7 7 7 7 7 7 7 6 7 8 7 6 6 6 5 5 4 4 4 3 3 3 3 3 3 3 3 3 3 2 2 3 2
3 5 6 5 5 6 3 6 4 6 4 4 3 2 3 5 7 6 6 6 6 6 6 6 6 6 6 6 6 5 5 5 4 4 3 3 3 3 3 4 3 3 4 4 3 3 2 3 2
4 5 6 5 4 4 4 6 3 3 3 3 2 1 1 3 4 5 5 5 5 6 6 6 6 5 5 5 5 5 4 4 4 4 4 3 3 3 4 4 4 4 4 4 5 5 4 4 4
Wind_Direction
150 140 138 122 56 46 351 325 52 53 52 48 79 88 99 88 120 174 301 104 116 131 151 153 143 137 139 138 138 136 135 135 138 140 140 142 142 142 143 146 149 150 151 150 149 146 144 144 144
141 151 158 67 74 49 321 322 67 105 140 131 81 73 73 59 62 97 82 104 104 113 128 137 128 129 133 136 135 135 135 136 137 140 139 140 140 140 143 147 152 153 151 151 150 148 146 145 145
157 177 94 70 86 159 236 279 122 98 121 106 75 59 74 78 100 115 138 121 97 100 116 132 124 122 126 130 131 132 133 134 135 137 139 140 140 142 147 149 152 155 154 152 151 149 148 148 147
149 81 59 61 27 234 201 187 143 125 80 59 89 67 60 47 110 124 126 117 104 93 110 127 124 119 119 123 127 130 129 133 134 135 137 140 142 146 148 150 151 155 157 154 151 152 152 151 150
91 78 50 25 327 309 169 168 153 123 86 70 87 82 42 26 90 113 118 114 112 95 103 122 125 121 121 124 130 133 130 131 133 136 139 142 143 144 147 146 150 153 153 152 153 154 153 153 152
64 64 62 2 327 341 108 137 111 93 95 95 93 88 47 76 100 117 113 104 104 105 105 111 115 118 122 126 129 135 135 134 134 133 134 135 137 140 140 143 147 151 154 155 155 155 154 155 155
105 88 114 245 291 299 167 123 128 121 114 125 117 97 93 107 115 113 100 95 90 91 88 99 107 117 121 127 129 133 134 133 133 134 136 134 135 136 138 144 147 149 153 156 158 158 156 157 157
135 104 67 254 207 227 154 113 112 117 109 113 109 132 165 162 126 105 91 83 77 67 60 64 77 85 102 124 128 129 132 132 138 138 139 135 132 132 137 143 148 149 152 155 159 160 160 159 159
121 77 221 221 194 204 150 120 112 96 109 107 96 136 143 134 124 113 100 84 79 68 39 48 57 72 87 118 133 134 131 133 134 135 138 129 125 127 132 142 147 150 153 155 157 156 160 160 159
118 149 227 218 188 173 154 139 143 113 109 95 79 92 119 129 134 137 140 143 138 115 37 48 53 64 76 94 103 114 121 125 122 119 117 113 111 117 124 133 140 143 146 149 152 150 153 152 155
167 206 238 232 176 154 144 137 131 131 168 185 156 142 139 141 145 151 157 163 174 168 125 66 53 69 64 61 90 100 108 116 115 113 115 113 110 106 99 115 124 127 131 128 134 136 134 135 146
188 253 234 227 150 143 150 140 129 165 208 160 149 146 147 153 162 168 169 173 167 150 163 115 89 66 47 69 86 99 111 118 117 123 128 125 114 92 88 92 99 101 108 107 106 113 120 129 140
201 291 345 60 109 121 116 123 133 148 112 124 134 143 154 161 168 174 170 164 158 170 181 174 147 111 84 79 83 96 109 128 134 137 141 137 128 114 117 127 118 111 116 118 114 110 119 120 121
214 8 6 53 90 101 113 96 97 133 127 132 143 154 163 169 172 170 169 172 178 190 197 182 165 145 112 98 92 120 132 141 139 150 159 154 156 148 142 130 125 131 141 141 131 126 125 126 128
78 53 26 37 77 97 107 62 175 148 141 145 156 163 169 176 177 183 185 182 187 193 190 182 170 147 136 130 145 145 151 148 146 169 172 165 167 169 156 132 135 148 143 132 116 109 110 116 121
50 59 25 312 106 126 120 232 209 151 149 158 167 172 177 186 192 194 185 178 180 179 179 184 179 160 155 143 147 152 157 154 170 181 170 167 169 163 150 132 136 150 140 134 125 123 118 117 118
31 42 271 292 190 143 149 222 198 160 157 168 177 180 184 189 198 200 189 181 178 179 176 174 169 159 160 141 125 126 141 152 174 171 172 172 166 159 154 142 144 136 127 128 132 124 128 125 120
243 247 257 256 240 147 174 226 187 172 170 178 183 184 188 195 202 195 186 179 175 173 170 171 164 151 137 116 91 77 82 110 156 162 170 167 164 157 154 146 132 126 121 121 119 118 110 113 116
182 184 246 258 219 156 201 225 204 183 181 185 188 189 196 203 198 180 177 171 164 166 168 172 167 160 143 131 133 128 148 124 107 151 163 162 160 155 156 147 133 130 130 131 126 117 111 105 105
157 163 259 307 46 143 159 313 225 190 199 198 195 194 198 195 184 179 174 174 178 183 183 178 179 171 165 164 154 145 136 133 128 114 119 151 159 160 162 149 142 139 132 127 127 123 119 106 115
196 185 208 218 40 53 67 341 299 236 213 208 206 199 196 195 192 189 183 184 184 189 191 190 187 182 176 154 125 106 90 76 72 67 72 102 150 156 159 150 146 146 147 153 151 144 142 154 161
238 215 182 159 106 338 79 286 286 253 235 221 215 203 202 201 193 191 188 188 192 197 191 186 180 179 174 155 147 145 151 159 178 159 146 107 138 149 159 155 152 147 146 154 166 153 156 156 173
194 133 125 118 118 58 26 155 290 292 251 239 224 212 206 198 191 193 193 194 194 191 186 184 175 177 172 164 166 162 165 174 146 127 119 114 105 145 164 164 159 151 153 156 156 151 167 171 174
135 79 61 54 73 32 255 172 284 249 238 249 228 216 204 194 190 190 187 179 181 176 175 176 173 181 177 173 172 174 175 170 152 155 166 175 158 143 169 168 165 166 167 170 174 174 180 188 186
99 95 42 9 12 256 256 192 253 263 254 234 223 213 199 189 182 180 181 183 184 179 179 175 178 186 184 181 185 188 186 179 181 186 187 185 189 211 224 190 167 169 181 176 168 171 188 191 188
171 142 156 188 218 273 327 235 254 284 291 263 210 187 175 179 182 185 186 189 190 186 184 181 188 191 186 186 192 193 188 187 194 193 191 195 204 212 207 194 189 184 177 173 163 177 196 185 198
142 151 152 133 136 275 283 286 300 330 351 4 44 155 172 180 181 187 187 187 187 184 185 188 185 189 191 190 188 187 189 188 192 195 195 201 209 209 193 192 194 190 175 168 167 187 202 191 201
126 139 102 122 149 219 284 281 272 295 299 312 327 207 195 182 182 184 187 191 189 187 187 185 188 195 195 189 193 197 196 194 190 186 194 197 204 205 191 193 196 190 185 180 180 198 205 188 207
84 88 103 117 148 158 219 265 242 245 246 242 254 252 208 186 183 184 190 194 187 180 180 182 191 193 191 191 191 194 194 190 187 191 201 206 207 199 200 203 198 200 201 193 189 209 204 204 220
143 149 143 150 194 167 174 257 285 248 253 219 239 267 238 194 183 179 183 184 179 178 179 181 189 193 196 190 186 193 191 181 189 203 209 207 213 217 212 204 202 207 207 200 199 208 207 208 220
Height
1494 1494 1495 1497 1500 1508 1509 1501 1496 1495 1496 1496 1495 1496 1498 1500 1503 1507 1503 1500 1501 1501 1501 1501 1500 1500 1500 1502 1503 1504 1505 1505 1506 1507 1508 1509 1510 1512 1513 1515 1517 1520 1523 1526 1529 1532 1535 1538 1540
1495 1495 1498 1498 1506 1518 1512 1499 1497 1496 1496 1496 1497 1498 1498 1500 1501 1501 1501 1502 1502 1502 1503 1502 1502 1502 1502 1503 1504 1505 1506 1507 1507 1508 1509 1510 1511 1513 1514 1516 1518 1520 1523 1526 1529 1532 1535 1538 1541
1495 1496 1499 1500 1508 1515 1508 1498 1496 1496 1496 1497 1498 1499 1500 1502 1502 1502 1503 1503 1503 1504 1504 1504 1504 1504 1505 1505 1506 1507 1508 1508 1509 1510 1511 1512 1512 1513 1515 1516 1518 1520 1524 1526 1529 1533 1536 1539 1542
1496 1498 1499 1505 1508 1503 1499 1496 1495 1496 1497 1498 1499 1501 1503 1504 1504 1504 1504 1505 1505 1506 1506 1506 1506 1506 1507 1507 1508 1509 1509 1510 1510 1511 1512 1512 1513 1514 1515 1516 1518 1520 1524 1527 1530 1533 1537 1540 1542
1497 1498 1504 1510 1506 1499 1495 1495 1495 1496 1498 1499 1500 1503 1505 1506 1506 1506 1506 1506 1507 1507 1507 1507 1507 1508 1509 1509 1510 1510 1511 1511 1512 1512 1513 1513 1514 1515 1516 1517 1518 1521 1524 1528 1531 1534 1537 1540 1543
1498 1499 1512 1515 1506 1498 1496 1496 1497 1498 1499 1500 1501 1504 1507 1508 1507 1507 1508 1508 1508 1509 1509 1509 1509 1510 1510 1511 1511 1511 1512 1512 1513 1514 1514 1515 1515 1516 1517 1518 1520 1521 1525 1528 1532 1535 1538 1541 1544
1499 1503 1510 1509 1507 1501 1497 1496 1497 1499 1500 1502 1502 1505 1507 1508 1509 1509 1509 1509 1510 1510 1511 1511 1511 1511 1511 1512 1512 1512 1513 1513 1514 1515 1515 1516 1517 1517 1518 1519 1521 1524 1526 1530 1533 1536 1539 1542 1545
1499 1503 1508 1508 1506 1502 1496 1497 1499 1500 1502 1503 1503 1504 1507 1509 1510 1510 1511 1511 1512 1512 1512 1512 1512 1512 1512 1513 1513 1513 1513 1514 1515 1516 1516 1517 1518 1518 1519 1521 1523 1525 1528 1531 1534 1537 1540 1543 1546
1499 1507 1511 1505 1502 1499 1496 1498 1500 1501 1502 1503 1504 1505 1506 1508 1510 1512 1512 1513 1513 1513 1513 1513 1513 1514 1514 1514 1514 1514 1514 1515 1516 1517 1518 1518 1519 1520 1521 1522 1524 1527 1530 1533 1536 1539 1541 1544 1546
1499 1508 1502 1494 1493 1494 1495 1497 1500 1501 1503 1504 1505 1506 1508 1509 1511 1512 1513 1513 1514 1514 1515 1514 1515 1515 1515 1515 1515 1514 1515 1516 1517 1518 1519 1520 1521 1522 1522 1524 1526 1529 1531 1534 1537 1540 1542 1545 1547
1496 1499 1493 1490 1491 1492 1495 1497 1499 1501 1504 1503 1503 1506 1508 1510 1512 1514 1514 1515 1516 1516 1516 1516 1516 1516 1516 1516 1516 1515 1516 1517 1519 1520 1521 1522 1523 1524 1524 1526 1528 1531 1533 1536 1538 1541 1543 1545 1547
1495 1493 1491 1490 1490 1492 1494 1496 1499 1500 1501 1502 1504 1505 1508 1511 1513 1514 1515 1516 1517 1517 1518 1518 1518 1518 1518 1517 1517 1517 1518 1519 1520 1522 1523 1524 1525 1526 1527 1528 1530 1532 1535 1537 1539 1542 1544 1546 1548
1494 1492 1491 1491 1491 1492 1495 1497 1498 1501 1501 1503 1505 1508 1510 1512 1514 1515 1516 1518 1518 1519 1519 1519 1520 1520 1520 1520 1520 1520 1520 1522 1523 1524 1525 1526 1527 1528 1529 1530 1532 1534 1536 1538 1540 1543 1544 1546 1548
1493 1492 1492 1492 1492 1494 1496 1499 1500 1502 1503 1504 1507 1509 1511 1513 1514 1516 1517 1518 1519 1520 1520 1521 1521 1521 1521 1521 1522 1522 1523 1524 1525 1526 1527 1528 1529 1530 1531 1532 1533 1535 1537 1540 1542 1543 1545 1547 1549
1492 1494 1495 1494 1494 1496 1498 1503 1501 1501 1503 1505 1508 1510 1512 1514 1515 1516 1517 1518 1519 1520 1521 1522 1522 1523 1523 1523 1524 1524 1525 1526 1527 1528 1528 1529 1530 1531 1532 1533 1534 1536 1539 1541 1542 1544 1545 1547 1549
1494 1500 1506 1498 1495 1496 1502 1509 1501 1501 1503 1506 1508 1511 1512 1514 1515 1517 1518 1519 1520 1521 1522 1523 1523 1523 1524 1525 1525 1526 1526 1527 1528 1529 1530 1530 1532 1532 1533 1534 1535 1537 1539 1541 1543 1544 1546 1548 1549
1505 1512 1510 1503 1497 1497 1501 1506 1500 1501 1503 1506 1508 1510 1512 1514 1515 1517 1518 1519 1520 1522 1523 1523 1524 1524 1525 1526 1526 1527 1527 1528 1529 1530 1531 1532 1533 1534 1535 1536 1537 1538 1540 1542 1544 1545 1547 1548 1549
1512 1511 1509 1507 1498 1498 1502 1503 1500 1501 1502 1505 1507 1509 1511 1513 1514 1516 1518 1520 1521 1522 1523 1524 1524 1525 1526 1526 1527 1528 1528 1529 1530 1531 1532 1534 1535 1536 1537 1538 1539 1540 1541 1543 1544 1546 1547 1549 1550
1500 1505 1508 1503 1496 1499 1502 1502 1500 1501 1502 1504 1506 1508 1510 1511 1514 1516 1518 1519 1521 1522 1523 1524 1525 1525 1526 1526 1527 1528 1529 1530 1531 1533 1534 1535 1536 1537 1538 1539 1540 1542 1543 1544 1545 1547 1548 1549 1550
1499 1506 1506 1501 1496 1499 1504 1504 1500 1500 1501 1502 1503 1506 1508 1511 1513 1515 1517 1519 1520 1521 1522 1523 1524 1525 1526 1527 1528 1529 1530 1531 1532 1534 1535 1536 1537 1538 1539 1540 1541 1542 1544 1545 1546 1547 1548 1549 1550
1499 1504 1504 1504 1500 1501 1505 1509 1504 1501 1501 1503 1504 1505 1507 1509 1510 1513 1515 1517 1518 1520 1521 1523 1524 1526 1527 1528 1529 1530 1531 1532 1533 1534 1536 1537 1538 1539 1540 1541 1542 1543 1544 1545 1546 1548 1549 1549 1551
1502 1494 1496 1500 1508 1517 1512 1526 1509 1503 1502 1501 1501 1503 1504 1507 1509 1511 1512 1514 1516 1518 1520 1522 1524 1525 1527 1528 1529 1530 1531 1532 1534 1535 1537 1538 1538 1539 1540 1541 1542 1543 1544 1545 1546 1547 1548 1549 1550
1494 1491 1495 1501 1509 1518 1517 1524 1516 1505 1504 1499 1498 1499 1501 1503 1505 1508 1510 1512 1514 1516 1518 1520 1522 1524 1526 1528 1529 1530 1531 1533 1534 1536 1537 1538 1539 1540 1540 1541 1542 1543 1544 1545 1546 1547 1548 1548 1549
1488 1495 1502 1510 1517 1531 1522 1526 1521 1509 1501 1496 1494 1495 1497 1500 1502 1505 1507 1510 1512 1514 1516 1519 1521 1523 1525 1527 1528 1530 1531 1532 1534 1535 1536 1537 1538 1539 1540 1541 1542 1543 1543 1544 1545 1546 1546 1547 1548
1491 1508 1528 1531 1538 1535 1521 1523 1518 1499 1494 1492 1491 1492 1494 1496 1499 1502 1505 1507 1509 1511 1514 1517 1519 1521 1523 1525 1527 1529 1530 1532 1533 1534 1535 1537 1538 1539 1540 1540 1541 1542 1543 1543 1544 1545 1545 1546 1546
1495 1503 1526 1538 1541 1534 1524 1525 1507 1494 1490 1488 1488 1489 1491 1494 1497 1499 1502 1504 1507 1509 1512 1514 1516 1519 1521 1523 1525 1527 1529 1530 1532 1533 1534 1535 1537 1538 1539 1539 1540 1541 1541 1542 1542 1543 1543 1544 1544
1495 1503 1504 1523 1529 1535 1529 1517 1502 1491 1490 1488 1488 1489 1490 1492 1495 1497 1500 1503 1505 1507 1509 1512 1515 1517 1519 1521 1523 1525 1527 1529 1530 1531 1533 1534 1535 1536 1537 1538 1538 1539 1539 1540 1540 1541 1541 1542 1542
1488 1497 1511 1523 1536 1539 1529 1522 1514 1498 1494 1491 1489 1489 1489 1491 1494 1496 1498 1501 1503 1505 1508 1511 1513 1515 1517 1520 1521 1523 1525 1526 1528 1530 1531 1531 1532 1534 1535 1535 1536 1537 1537 1538 1538 1539 1539 1539 1540
1494 1500 1510 1521 1523 1535 1537 1525 1498 1495 1492 1491 1489 1489 1488 1489 1491 1493 1496 1499 1501 1504 1506 1509 1511 1514 1516 1518 1520 1521 1523 1525 1526 1527 1528 1529 1530 1531 1532 1533 1534 1534 1535 1535 1536 1536 1537 1537 1537
1488 1495 1505 1516 1523 1527 1529 1520 1490 1491 1489 1488 1488 1488 1488 1489 1491 1493 1496 1498 1500 1502 1504 1506 1509 1511 1513 1516 1518 1519 1521 1523 1524 1525 1526 1527 1528 1529 1530 1531 1531 1532 1533 1533 1533 1534 1534 1535 1535